,,PA_Meas_PMT16A,,PR_Meas_QMR101_102,,RH_Meas_QMH101,,SR_Meas_QMS101,,TA_Meas_QMH101,,GenWind,,GenWind,
time,status,PA,status,PR,status,RH,status,SR,status,TA,status,DirAvg,status,SpdAvg,
2016-05-16, 07:48:04,VALID,918.253,VALID,0,INVALID,109.465,VALID,71.126,VALID,20.465,VALID,123,VALID,0,
2016-05-16, 08:04:04,VALID,918.331,VALID,0,INVALID,110.646,VALID,92.3994,VALID,20.582,VALID,115,VALID,0,
2016-05-16, 08:14:04,VALID,918.398,VALID,0,INVALID,111.447,VALID,125.169,VALID,20.6975,VALID,109,VALID,0,
2016-05-16, 08:15:04,VALID,918.421,VALID,0,INVALID,111.447,VALID,128.07,VALID,20.756,VALID,89,VALID,0,
2016-05-16, 08:16:04,VALID,918.422,VALID,0,INVALID,111.561,VALID,131.508,VALID,20.7365,VALID,149,VALID,0,
2016-05-16, 08:17:04,VALID,918.409,VALID,0,INVALID,111.622,VALID,135.376,VALID,20.756,VALID,145,VALID,0,
2016-05-16, 08:18:04,VALID,918.445,VALID,0,INVALID,111.675,VALID,139.029,VALID,20.756,VALID,168,VALID,0,
2016-05-16, 08:19:04,VALID,918.428,VALID,0,INVALID,111.683,VALID,142.36,VALID,20.795,VALID,147,VALID,0,
2016-05-16, 08:20:04,VALID,918.451,VALID,0,INVALID,111.721,VALID,144.293,VALID,20.8145,VALID,120,VALID,0,
2016-05-16, 08:21:04,VALID,918.469,VALID,0,INVALID,111.759,VALID,144.723,VALID,20.8535,VALID,120,VALID,0,
2016-05-16, 08:22:04,VALID,918.44,VALID,0,INVALID,112.034,VALID,144.079,VALID,20.7755,VALID,118,VALID,0,
2016-05-16, 08:23:04,VALID,918.488,VALID,0,INVALID,112.133,VALID,142.682,VALID,20.7755,VALID,123,VALID,0,
2016-05-16, 08:24:04,VALID,918.456,VALID,0,INVALID,112.362,VALID,141.07,VALID,20.717,VALID,106,VALID,0,
2016-05-16, 08:25:04,VALID,918.482,VALID,0,INVALID,112.544,VALID,139.781,VALID,20.6975,VALID,118,VALID,0,
2016-05-16, 08:26:04,VALID,918.507,VALID,0,INVALID,112.644,VALID,138.384,VALID,20.717,VALID,142,VALID,0,
2016-05-16, 08:27:04,VALID,918.489,VALID,0,INVALID,112.666,VALID,137.095,VALID,20.756,VALID,132,VALID,0,
2016-05-16, 08:28:04,VALID,918.49,VALID,0,INVALID,112.705,VALID,135.806,VALID,20.8145,VALID,128,VALID,0,
2016-05-16, 08:29:04,VALID,918.501,VALID,0,INVALID,112.727,VALID,134.946,VALID,20.873,VALID,133,VALID,0,
2016-05-16, 08:30:04,VALID,918.53,VALID,0,INVALID,112.819,VALID,135.268,VALID,20.8925,VALID,133,VALID,0,
2016-05-16, 08:31:04,VALID,918.52,VALID,0,INVALID,112.888,VALID,135.806,VALID,20.9316,VALID,98,VALID,0,
2016-05-16, 08:32:04,VALID,918.505,VALID,0,INVALID,113.01,VALID,136.02,VALID,20.9316,VALID,104,VALID,0,
2016-05-16, 08:33:04,VALID,918.508,VALID,0,INVALID,113.055,VALID,135.483,VALID,20.9511,VALID,126,VALID,0,
2016-05-16, 08:34:04,VALID,918.503,VALID,0,INVALID,113.063,VALID,134.839,VALID,20.9706,VALID,132,VALID,0,
2016-05-16, 08:35:04,VALID,918.494,VALID,0,INVALID,113.048,VALID,134.946,VALID,21.0291,VALID,132,VALID,0,
2016-05-16, 08:36:04,VALID,918.486,VALID,0,INVALID,113.071,VALID,135.268,VALID,21.0681,VALID,132,VALID,0,
2016-05-16, 08:37:04,VALID,918.48,VALID,0,INVALID,113.071,VALID,135.913,VALID,21.0876,VALID,126,VALID,0,
2016-05-16, 08:38:04,VALID,918.48,VALID,0,INVALID,113.078,VALID,137.095,VALID,21.0681,VALID,107,VALID,0,
2016-05-16, 08:39:04,VALID,918.482,VALID,0,INVALID,113.055,VALID,138.277,VALID,21.1266,VALID,74,VALID,0,
2016-05-16, 08:40:04,VALID,918.492,VALID,0,INVALID,113.055,VALID,139.781,VALID,21.1461,VALID,115,VALID,0,
2016-05-16, 08:41:04,VALID,918.46,VALID,0,INVALID,113.048,VALID,141.285,VALID,21.1657,VALID,91,VALID,0,
2016-05-16, 08:42:04,VALID,918.476,VALID,0,INVALID,113.002,VALID,142.467,VALID,21.1852,VALID,97,VALID,0,
2016-05-16, 08:43:04,VALID,918.489,VALID,0,INVALID,112.971,VALID,143.219,VALID,21.2031,VALID,73,VALID,0,
2016-05-16, 08:44:04,VALID,918.492,VALID,0,INVALID,112.956,VALID,143.434,VALID,21.2437,VALID,114,VALID,0,
2016-05-16, 08:45:04,VALID,918.501,VALID,0,INVALID,112.987,VALID,141.822,VALID,21.2811,VALID,79,VALID,0,
2016-05-16, 08:46:04,VALID,918.511,VALID,0,INVALID,112.72,VALID,139.781,VALID,21.2226,VALID,110,VALID,0,
2016-05-16, 08:47:04,VALID,918.51,VALID,0,INVALID,112.506,VALID,136.88,VALID,21.2421,VALID,86,VALID,0,
2016-05-16, 08:48:04,VALID,918.525,VALID,0,INVALID,112.438,VALID,133.442,VALID,21.2421,VALID,99,VALID,0,
2016-05-16, 08:49:04,VALID,918.576,VALID,0,INVALID,112.384,VALID,130.004,VALID,21.2616,VALID,110,VALID,0,
2016-05-16, 08:50:04,VALID,918.562,VALID,0,INVALID,112.255,VALID,125.599,VALID,21.2632,VALID,99,VALID,0,
2016-05-16, 09:05:04,VALID,918.583,VALID,0,INVALID,112.872,VALID,118.615,VALID,21.4973,VALID,136,VALID,0,
2016-05-16, 09:07:04,VALID,918.563,VALID,0,INVALID,112.834,VALID,124.309,VALID,21.5347,VALID,113,VALID,0,
2016-05-16, 09:08:04,VALID,918.54,VALID,0,INVALID,112.75,VALID,127.103,VALID,21.5347,VALID,143,VALID,0,
2016-05-16, 09:09:04,VALID,918.567,VALID,0,INVALID,112.834,VALID,129.359,VALID,21.6144,VALID,143,VALID,0,
2016-05-16, 09:10:04,VALID,918.568,VALID,0,INVALID,112.895,VALID,130.648,VALID,21.6339,VALID,148,VALID,0,
2016-05-16, 09:11:04,VALID,918.545,VALID,0,INVALID,112.758,VALID,130.863,VALID,21.6144,VALID,154,VALID,0,
2016-05-16, 09:12:04,VALID,918.572,VALID,0,INVALID,112.354,VALID,129.896,VALID,21.5932,VALID,128,VALID,0,
2016-05-16, 09:13:04,VALID,918.592,VALID,0,INVALID,112.156,VALID,127.748,VALID,21.6339,VALID,120,VALID,0,
2016-05-16, 09:14:04,VALID,918.59,VALID,0,INVALID,111.889,VALID,124.524,VALID,21.6144,VALID,117,VALID,1.83164,
2016-05-16, 09:17:04,VALID,918.57,VALID,0,INVALID,111.919,VALID,113.888,VALID,21.6924,VALID,108,VALID,0,
2016-05-16, 09:42:04,VALID,918.714,VALID,0,INVALID,112.605,VALID,99.5979,VALID,21.5932,VALID,105,VALID,1.04375,
2016-05-16, 09:45:04,VALID,918.688,VALID,0,INVALID,112.857,VALID,106.367,VALID,21.6323,VALID,86,VALID,0.750391,
2016-05-16, 09:48:04,VALID,918.631,VALID,0.2,INVALID,112.956,VALID,117.111,VALID,21.6128,VALID,103,VALID,1.06289,
2016-05-16, 09:49:04,VALID,918.67,VALID,0,INVALID,112.971,VALID,120.871,VALID,21.6128,VALID,121,VALID,0.430469,
2016-05-16, 09:50:04,VALID,918.639,VALID,0,INVALID,113.017,VALID,124.309,VALID,21.6144,VALID,106,VALID,1.32734,
2016-05-16, 09:51:04,VALID,918.625,VALID,0,INVALID,113.04,VALID,128.285,VALID,21.5949,VALID,127,VALID,1.28008,
2016-05-16, 09:52:04,VALID,918.662,VALID,0,INVALID,113.017,VALID,132.69,VALID,21.5754,VALID,132,VALID,1.1457,
2016-05-16, 09:53:04,VALID,918.637,VALID,0,INVALID,113.025,VALID,137.74,VALID,21.5363,VALID,120,VALID,1.30078,
2016-05-16, 09:54:04,VALID,918.652,VALID,0,INVALID,113.01,VALID,143.004,VALID,21.5152,VALID,101,VALID,0.867578,
2016-05-16, 09:55:04,VALID,918.633,VALID,0,INVALID,112.994,VALID,148.806,VALID,21.4957,VALID,115,VALID,1.46836,
2016-05-16, 09:56:04,VALID,918.634,VALID,0,INVALID,112.865,VALID,155.79,VALID,21.4567,VALID,132,VALID,1.28555,
2016-05-16, 09:57:04,VALID,918.659,VALID,0,INVALID,112.781,VALID,162.558,VALID,21.4973,VALID,153,VALID,0.427734,
2016-05-16, 09:58:04,VALID,918.647,VALID,0,INVALID,112.743,VALID,169.972,VALID,21.4762,VALID,144,VALID,0.438281,
2016-05-16, 09:59:04,VALID,918.639,VALID,0,INVALID,112.316,VALID,178.03,VALID,21.4583,VALID,152,VALID,1.19727,
2016-05-16, 10:00:04,VALID,918.631,VALID,0,INVALID,112.301,VALID,188.667,VALID,21.4762,VALID,134,VALID,1.01406,
2016-05-16, 10:01:04,VALID,918.596,VALID,0.2,INVALID,112.369,VALID,200.378,VALID,21.4973,VALID,119,VALID,0,
2016-05-16, 10:02:04,VALID,918.637,VALID,0,INVALID,112.506,VALID,212.411,VALID,21.4973,VALID,127,VALID,1.52656,
2016-05-16, 10:03:04,VALID,918.614,VALID,0,INVALID,112.659,VALID,223.478,VALID,21.4957,VALID,119,VALID,0.867969,
2016-05-16, 10:04:04,VALID,918.614,VALID,0.2,INVALID,112.59,VALID,233.792,VALID,21.4372,VALID,132,VALID,1.78398,
2016-05-16, 10:05:04,VALID,918.593,VALID,0,INVALID,112.613,VALID,244.321,VALID,21.455,VALID,111,VALID,0.0195313,
2016-05-16, 10:06:04,VALID,918.595,VALID,0,INVALID,112.811,VALID,255.495,VALID,21.4762,VALID,133,VALID,0,
2016-05-16, 10:07:04,VALID,918.619,VALID,0,INVALID,112.865,VALID,266.347,VALID,21.5347,VALID,79,VALID,0.412891,
2016-05-16, 10:08:04,VALID,918.584,VALID,0.2,INVALID,112.895,VALID,279.454,VALID,21.4941,VALID,82,VALID,0,
2016-05-16, 10:09:04,VALID,918.587,VALID,0,INVALID,112.712,VALID,291.488,VALID,21.4957,VALID,109,VALID,0,
2016-05-16, 10:10:04,VALID,918.578,VALID,0,INVALID,112.522,VALID,297.397,VALID,21.5526,VALID,109,VALID,0,
2016-05-16, 10:11:04,VALID,918.562,VALID,0,INVALID,112.354,VALID,297.075,VALID,21.5932,VALID,143,VALID,0,
2016-05-16, 10:12:04,VALID,918.561,VALID,0,INVALID,112.148,VALID,290.199,VALID,21.5916,VALID,126,VALID,0,
2016-05-16, 10:13:04,VALID,918.555,VALID,0,INVALID,111.805,VALID,278.273,VALID,21.6306,VALID,104,VALID,0,
2016-05-16, 10:14:04,VALID,918.533,VALID,0,INVALID,112.346,VALID,267.206,VALID,21.8079,VALID,112,VALID,0,
2016-05-16, 10:15:04,VALID,918.558,VALID,0,INVALID,112.392,VALID,259.255,VALID,21.8062,VALID,145,VALID,0,
2016-05-16, 10:16:04,VALID,918.539,VALID,0,INVALID,112.11,VALID,254.421,VALID,21.8274,VALID,135,VALID,0,
2016-05-16, 10:17:04,VALID,918.503,VALID,0,INVALID,111.935,VALID,250.768,VALID,21.8842,VALID,115,VALID,0,
2016-05-16, 10:18:04,VALID,918.547,VALID,0,INVALID,112.308,VALID,248.619,VALID,21.9444,VALID,159,VALID,0,
2016-05-16, 10:19:04,VALID,918.481,VALID,0,INVALID,112.583,VALID,248.511,VALID,22.003,VALID,153,VALID,0,
2016-05-16, 10:20:04,VALID,918.484,VALID,0,INVALID,112.529,VALID,248.726,VALID,21.9444,VALID,149,VALID,0.292969,
2016-05-16, 10:21:04,VALID,918.417,VALID,0,INVALID,112.453,VALID,249.263,VALID,21.9266,VALID,125,VALID,1.36563,
2016-05-16, 10:22:04,VALID,918.424,VALID,0,INVALID,112.659,VALID,249.908,VALID,22.0047,VALID,105,VALID,0.059375,
2016-05-16, 10:23:04,VALID,918.419,VALID,0,INVALID,112.781,VALID,252.164,VALID,21.9835,VALID,138,VALID,0.803906,
2016-05-16, 10:24:04,VALID,918.393,VALID,0,INVALID,112.186,VALID,256.14,VALID,21.9038,VALID,88,VALID,1.18516,
2016-05-16, 10:25:04,VALID,918.405,VALID,0,INVALID,111.355,VALID,262.479,VALID,21.964,VALID,81,VALID,1.30195,
2016-05-16, 10:26:04,VALID,918.356,VALID,0,INVALID,110.776,VALID,271.934,VALID,21.9444,VALID,94,VALID,0.707422,
2016-05-16, 10:27:04,VALID,918.338,VALID,0,INVALID,110.959,VALID,284.397,VALID,21.9835,VALID,154,VALID,1.14336,
2016-05-16, 10:28:04,VALID,918.326,VALID,0,INVALID,110.989,VALID,297.612,VALID,22.0225,VALID,135,VALID,0.415625,
2016-05-16, 10:29:04,VALID,918.327,VALID,0,INVALID,110.41,VALID,309.323,VALID,22.003,VALID,131,VALID,0.350391,
2016-05-16, 10:30:04,VALID,918.282,VALID,0,INVALID,111.149,VALID,319.1,VALID,22.1005,VALID,100,VALID,0.406641,
2016-05-16, 10:31:04,VALID,918.312,VALID,0,INVALID,111.226,VALID,324.58,VALID,22.1396,VALID,124,VALID,0.908984,
2016-05-16, 10:32:04,VALID,918.292,VALID,0,INVALID,111.34,VALID,326.836,VALID,22.2176,VALID,111,VALID,0,
2016-05-16, 10:33:04,VALID,918.324,VALID,0,INVALID,110.524,VALID,329.629,VALID,22.2371,VALID,101,VALID,0.395312,
2016-05-16, 10:34:04,VALID,918.3,VALID,0,INVALID,110.364,VALID,332.315,VALID,22.2974,VALID,92,VALID,0.451172,
2016-05-16, 10:35:04,VALID,918.316,VALID,0,INVALID,110.242,VALID,334.572,VALID,22.3347,VALID,70,VALID,0.660156,
2016-05-16, 10:36:04,VALID,918.312,VALID,0,INVALID,110.082,VALID,335.431,VALID,22.3737,VALID,47,VALID,1.39844,
2016-05-16, 10:37:04,VALID,918.32,VALID,0,INVALID,110.372,VALID,335.109,VALID,22.4323,VALID,24,VALID,0,
2016-05-16, 10:38:04,VALID,918.309,VALID,0,VALID,104,VALID,335.646,VALID,22.4518,VALID,49,VALID,1.51641,
2016-05-16, 10:39:04,VALID,918.284,VALID,0,VALID,104,VALID,337.043,VALID,22.4891,VALID,60,VALID,1.84492,
2016-05-16, 10:40:04,VALID,918.323,VALID,0,VALID,102.665,VALID,339.621,VALID,22.5086,VALID,61,VALID,2.16211,
2016-05-16, 10:41:04,VALID,918.31,VALID,0,VALID,102.901,VALID,342.952,VALID,22.5281,VALID,48,VALID,1.58555,
2016-05-16, 10:42:04,VALID,918.293,VALID,0,VALID,102.314,VALID,348.217,VALID,22.5281,VALID,66,VALID,1.42539,
2016-05-16, 10:43:04,VALID,918.315,VALID,0,VALID,104,VALID,354.126,VALID,22.6079,VALID,81,VALID,0,
2016-05-16, 10:44:04,VALID,918.313,VALID,0,VALID,104,VALID,356.597,VALID,22.6843,VALID,356,VALID,0,
2016-05-16, 10:45:04,VALID,918.289,VALID,0,VALID,103.579,VALID,357.134,VALID,22.7233,VALID,14,VALID,0,
2016-05-16, 10:46:04,VALID,918.315,VALID,0,VALID,104,VALID,355.523,VALID,22.8599,VALID,5,VALID,0,
2016-05-16, 10:47:04,VALID,918.285,VALID,0,VALID,104,VALID,353.267,VALID,23.0373,VALID,33,VALID,0,
2016-05-16, 10:48:04,VALID,918.266,VALID,0,VALID,103.831,VALID,351.977,VALID,23.0551,VALID,41,VALID,0,
2016-05-16, 10:49:04,VALID,918.262,VALID,0,VALID,102.482,VALID,341.985,VALID,23.1527,VALID,43,VALID,0,
2016-05-16, 10:50:04,VALID,918.254,VALID,0,VALID,104,VALID,331.563,VALID,23.2698,VALID,21,VALID,0,
2016-05-16, 10:51:04,VALID,918.26,VALID,0,VALID,104,VALID,322.109,VALID,23.3478,VALID,32,VALID,0,
2016-05-16, 10:52:04,VALID,918.269,VALID,0,VALID,87.189,VALID,312.869,VALID,23.3478,VALID,48,VALID,0,
2016-05-16, 10:53:04,VALID,918.297,VALID,0,VALID,85.8702,VALID,304.166,VALID,23.3869,VALID,21,VALID,0,
2016-05-16, 10:54:04,VALID,918.263,VALID,0,VALID,100.187,VALID,296.967,VALID,23.465,VALID,41,VALID,0,
2016-05-16, 10:55:04,VALID,918.286,VALID,0,VALID,82.1194,VALID,291.918,VALID,23.4632,VALID,76,VALID,0,
2016-05-16, 10:56:04,VALID,918.285,VALID,0,VALID,83.1029,VALID,287.942,VALID,23.4259,VALID,67,VALID,0,
2016-05-16, 10:57:04,VALID,918.289,VALID,0,VALID,83.7966,VALID,285.256,VALID,23.3851,VALID,54,VALID,0,
2016-05-16, 10:58:04,VALID,918.301,VALID,0,VALID,98.7156,VALID,284.504,VALID,23.4437,VALID,18,VALID,0,
2016-05-16, 10:59:04,VALID,918.281,VALID,0,VALID,80.4728,VALID,285.041,VALID,23.4437,VALID,15,VALID,0,
2016-05-16, 11:00:04,VALID,918.302,VALID,0,VALID,87.5473,VALID,287.835,VALID,23.5235,VALID,30,VALID,0,
2016-05-16, 11:01:04,VALID,918.282,VALID,0,VALID,78.7118,VALID,292.24,VALID,23.5217,VALID,43,VALID,0,
2016-05-16, 11:02:04,VALID,918.255,VALID,0,VALID,85.3594,VALID,297.612,VALID,23.6211,VALID,23,VALID,0,
2016-05-16, 11:03:04,VALID,918.247,VALID,0,VALID,81.5553,VALID,302.984,VALID,23.6211,VALID,31,VALID,0,
2016-05-16, 11:04:04,VALID,918.262,VALID,0,VALID,78.8261,VALID,307.604,VALID,23.6016,VALID,36,VALID,0,
2016-05-16, 11:05:04,VALID,918.258,VALID,0,VALID,77.8275,VALID,311.364,VALID,23.5821,VALID,23,VALID,0,
2016-05-16, 11:06:04,VALID,918.213,VALID,0,VALID,78.849,VALID,315.77,VALID,23.5626,VALID,38,VALID,0,
2016-05-16, 11:07:04,VALID,918.199,VALID,0,VALID,85.9007,VALID,318.563,VALID,23.5821,VALID,47,VALID,0,
2016-05-16, 11:08:04,VALID,918.186,VALID,0,VALID,88.1343,VALID,317.059,VALID,23.6602,VALID,39,VALID,0,
2016-05-16, 11:09:04,VALID,918.205,VALID,0,VALID,87.5168,VALID,315.662,VALID,23.7578,VALID,45,VALID,0,
2016-05-16, 11:10:04,VALID,918.163,VALID,0,VALID,85.2069,VALID,315.125,VALID,23.8163,VALID,32,VALID,0,
2016-05-16, 11:11:04,VALID,918.161,VALID,0,VALID,86.4038,VALID,315.232,VALID,23.8536,VALID,49,VALID,0,
2016-05-16, 11:12:04,VALID,918.191,VALID,0,VALID,85.4204,VALID,315.984,VALID,23.8749,VALID,46,VALID,0,
2016-05-16, 11:13:04,VALID,918.171,VALID,0,VALID,96.7488,VALID,318.563,VALID,23.9139,VALID,29,VALID,0,
2016-05-16, 11:14:04,VALID,918.133,VALID,0,VALID,88.9195,VALID,321.679,VALID,23.9512,VALID,26,VALID,0,
2016-05-16, 11:15:04,VALID,918.121,VALID,0,VALID,83.8881,VALID,323.935,VALID,24.0292,VALID,19,VALID,0,
2016-05-16, 11:16:04,VALID,918.079,VALID,0,VALID,78.5669,VALID,325.762,VALID,24.0701,VALID,23,VALID,0,
2016-05-16, 11:17:04,VALID,918.05,VALID,0,VALID,81.5477,VALID,327.373,VALID,24.1073,VALID,38,VALID,0,
2016-05-16, 11:18:04,VALID,918.023,VALID,0,VALID,78.0943,VALID,330.596,VALID,24.1482,VALID,33,VALID,0,
2016-05-16, 11:19:04,VALID,918.011,VALID,0,VALID,76.4476,VALID,333.927,VALID,24.1482,VALID,37,VALID,0,
2016-05-16, 11:20:04,VALID,917.948,VALID,0,VALID,81.1055,VALID,338.869,VALID,24.2049,VALID,34,VALID,0,
2016-05-16, 11:21:04,VALID,917.971,VALID,0,VALID,78.5288,VALID,348.754,VALID,24.3026,VALID,23,VALID,0,
2016-05-16, 11:22:04,VALID,917.92,VALID,0,VALID,76.0359,VALID,362.506,VALID,24.4197,VALID,19,VALID,0,
2016-05-16, 11:23:04,VALID,917.913,VALID,0,VALID,78.079,VALID,368.631,VALID,24.5759,VALID,8,VALID,0,
2016-05-16, 11:24:04,VALID,917.905,VALID,0,VALID,74.1377,VALID,374.325,VALID,24.7126,VALID,8,VALID,0,
2016-05-16, 11:25:04,VALID,917.844,VALID,0,VALID,75.8835,VALID,374.003,VALID,24.9097,VALID,8,VALID,0,
2016-05-16, 11:26:04,VALID,917.847,VALID,0,VALID,78.4373,VALID,373.036,VALID,25.0445,VALID,11,VALID,0,
2016-05-16, 11:27:04,VALID,917.814,VALID,0,VALID,75.5328,VALID,368.631,VALID,25.1636,VALID,22,VALID,0,
2016-05-16, 11:28:04,VALID,917.796,VALID,0,VALID,76.1656,VALID,369.705,VALID,25.2593,VALID,43,VALID,0,
2016-05-16, 11:29:04,VALID,917.805,VALID,0,VALID,72.2776,VALID,368.631,VALID,25.3374,VALID,44,VALID,0,
2016-05-16, 11:30:04,VALID,917.8,VALID,0,VALID,70.6462,VALID,364.333,VALID,25.357,VALID,55,VALID,0,
2016-05-16, 11:31:04,VALID,917.726,VALID,0,VALID,70.2574,VALID,356.06,VALID,25.3784,VALID,74,VALID,0,
2016-05-16, 11:32:04,VALID,917.725,VALID,0,VALID,65.3022,VALID,349.506,VALID,25.2593,VALID,54,VALID,0,
2016-05-16, 11:33:04,VALID,917.727,VALID,0,VALID,67.0479,VALID,343.919,VALID,25.2379,VALID,53,VALID,0,
2016-05-16, 11:34:04,VALID,917.698,VALID,0,VALID,68.9462,VALID,341.126,VALID,25.2183,VALID,60,VALID,0,
2016-05-16, 11:35:04,VALID,917.672,VALID,0,VALID,71.8507,VALID,340.588,VALID,25.1812,VALID,91,VALID,0,
2016-05-16, 11:36:04,VALID,917.635,VALID,0,VALID,74.3131,VALID,341.985,VALID,25.1422,VALID,58,VALID,0,
2016-05-16, 11:37:04,VALID,917.63,VALID,0,VALID,76.844,VALID,345.638,VALID,25.064,VALID,79,VALID,0,
2016-05-16, 11:38:04,VALID,917.622,VALID,0,VALID,78.0562,VALID,349.936,VALID,24.9469,VALID,128,VALID,0,
2016-05-16, 11:39:04,VALID,917.615,VALID,0,VALID,77.8427,VALID,355.2,VALID,24.8688,VALID,95,VALID,0,
2016-05-16, 11:40:04,VALID,917.581,VALID,0,VALID,79.1692,VALID,361.325,VALID,24.7711,VALID,96,VALID,0,
2016-05-16, 11:41:04,VALID,917.557,VALID,0,VALID,82.5616,VALID,368.738,VALID,24.6735,VALID,102,VALID,0,
2016-05-16, 11:42:04,VALID,917.582,VALID,0,VALID,89.3617,VALID,376.151,VALID,24.5368,VALID,91,VALID,0,
2016-05-16, 11:43:04,VALID,917.519,VALID,0,VALID,100.385,VALID,382.276,VALID,24.5173,VALID,90,VALID,0,
2016-05-16, 11:44:04,VALID,917.546,VALID,0,VALID,103.267,VALID,388.83,VALID,24.4197,VALID,104,VALID,0,
2016-05-16, 11:45:04,VALID,917.541,VALID,0,VALID,104,VALID,393.557,VALID,24.3806,VALID,114,VALID,0,
2016-05-16, 11:46:04,VALID,917.51,VALID,0,VALID,104,VALID,397.855,VALID,24.4197,VALID,62,VALID,0,
2016-05-16, 11:47:04,VALID,917.474,VALID,0,VALID,99.9201,VALID,400.541,VALID,24.4392,VALID,46,VALID,0,
2016-05-16, 11:48:04,VALID,917.471,VALID,0,VALID,103.678,VALID,394.739,VALID,24.4587,VALID,45,VALID,0,
2016-05-16, 11:49:04,VALID,917.46,VALID,0,VALID,97.0994,VALID,387.863,VALID,24.4392,VALID,65,VALID,0,
2016-05-16, 11:50:04,VALID,917.445,VALID,0,VALID,80.0078,VALID,385.929,VALID,24.4197,VALID,71,VALID,0,
2016-05-16, 11:51:04,VALID,917.433,VALID,0,VALID,81.2351,VALID,386.143,VALID,24.4587,VALID,63,VALID,0,
2016-05-16, 11:52:04,VALID,917.388,VALID,0,VALID,79.0472,VALID,388.077,VALID,24.4978,VALID,86,VALID,0,
2016-05-16, 11:53:04,VALID,917.414,VALID,0,VALID,77.4692,VALID,390.334,VALID,24.6131,VALID,94,VALID,0,
2016-05-16, 11:54:04,VALID,917.376,VALID,0,VALID,78.9328,VALID,391.73,VALID,24.7711,VALID,86,VALID,0,
2016-05-16, 11:55:04,VALID,917.38,VALID,0,VALID,78.1629,VALID,392.697,VALID,24.8492,VALID,141,VALID,0,
2016-05-16, 11:56:04,VALID,917.35,VALID,0,VALID,79.8629,VALID,391.838,VALID,24.9469,VALID,140,VALID,0,
2016-05-16, 11:57:04,VALID,917.348,VALID,0,VALID,79.1768,VALID,389.689,VALID,25.0426,VALID,145,VALID,0,
2016-05-16, 11:58:04,VALID,917.365,VALID,0,VALID,78.6432,VALID,388.077,VALID,25.0426,VALID,146,VALID,0,
2016-05-16, 11:59:04,VALID,917.327,VALID,0,VALID,77.4463,VALID,387.11,VALID,25.1226,VALID,149,VALID,0,
2016-05-16, 12:00:04,VALID,917.338,VALID,0,VALID,77.1566,VALID,387.325,VALID,25.1422,VALID,141,VALID,0,
2016-05-16, 12:01:04,VALID,917.318,VALID,0,VALID,75.914,VALID,388.507,VALID,25.0817,VALID,149,VALID,0,
2016-05-16, 12:02:04,VALID,917.284,VALID,0,VALID,71.7058,VALID,389.689,VALID,25.0055,VALID,145,VALID,0,
2016-05-16, 12:03:04,VALID,917.269,VALID,0,VALID,74.6942,VALID,391.086,VALID,25.0055,VALID,146,VALID,0,
2016-05-16, 12:04:04,VALID,917.219,VALID,0,VALID,75.1516,VALID,394.309,VALID,25.025,VALID,142,VALID,0,
2016-05-16, 12:05:04,VALID,917.176,VALID,0,VALID,72.1099,VALID,399.896,VALID,24.9645,VALID,125,VALID,0,
2016-05-16, 12:06:04,VALID,917.166,VALID,0,VALID,73.2839,VALID,408.061,VALID,24.9859,VALID,108,VALID,0,
2016-05-16, 12:07:04,VALID,917.146,VALID,0,VALID,71.8659,VALID,418.698,VALID,25.0055,VALID,126,VALID,0,
2016-05-16, 12:08:04,VALID,917.121,VALID,0,VALID,73.1695,VALID,428.69,VALID,25.0231,VALID,126,VALID,0,
2016-05-16, 12:09:04,VALID,917.075,VALID,0,VALID,76.6992,VALID,437.5,VALID,25.1226,VALID,128,VALID,0,
2016-05-16, 12:10:04,VALID,917.06,VALID,0,VALID,72.5063,VALID,444.806,VALID,25.1226,VALID,103,VALID,0,
2016-05-16, 12:11:04,VALID,917.022,VALID,0,VALID,76.9813,VALID,450.931,VALID,25.2379,VALID,105,VALID,0,
2016-05-16, 12:12:04,VALID,916.964,VALID,0,VALID,72.148,VALID,454.798,VALID,25.4136,VALID,182,VALID,0,
2016-05-16, 12:13:04,VALID,916.957,VALID,0,VALID,75.1593,VALID,456.303,VALID,25.5698,VALID,157,VALID,0,
2016-05-16, 12:14:04,VALID,916.941,VALID,0,VALID,69.3121,VALID,455.765,VALID,25.6284,VALID,180,VALID,0,
2016-05-16, 12:15:04,VALID,916.884,VALID,0,VALID,71.4467,VALID,453.509,VALID,25.7456,VALID,177,VALID,0,
2016-05-16, 12:16:04,VALID,916.898,VALID,0,VALID,71.4085,VALID,451.468,VALID,25.7456,VALID,170,VALID,0.649609,
2016-05-16, 12:17:04,VALID,916.836,VALID,0,VALID,70.6538,VALID,452.435,VALID,25.7456,VALID,148,VALID,0.158594,
2016-05-16, 12:18:04,VALID,916.852,VALID,0,VALID,74.9992,VALID,457.592,VALID,25.5698,VALID,139,VALID,0.0121094,
2016-05-16, 12:19:04,VALID,916.792,VALID,0,VALID,76.8593,VALID,471.237,VALID,25.5484,VALID,132,VALID,0.0210938,
2016-05-16, 12:20:04,VALID,916.799,VALID,0,VALID,75.205,VALID,509.486,VALID,25.5113,VALID,134,VALID,0,
2016-05-16, 12:21:04,VALID,916.767,VALID,0,VALID,71.6601,VALID,527.643,VALID,25.4722,VALID,149,VALID,0,
2016-05-16, 12:22:04,VALID,916.73,VALID,0,VALID,73.6498,VALID,531.297,VALID,25.3941,VALID,175,VALID,0,
2016-05-16, 12:23:04,VALID,916.727,VALID,0,VALID,74.5494,VALID,540.214,VALID,25.4917,VALID,140,VALID,0,
2016-05-16, 12:24:04,VALID,916.69,VALID,0,VALID,75.7768,VALID,554.289,VALID,25.5308,VALID,143,VALID,0,
2016-05-16, 12:25:04,VALID,916.691,VALID,0,VALID,74.679,VALID,551.71,VALID,25.5698,VALID,150,VALID,0.0417969,
2016-05-16, 12:26:04,VALID,916.677,VALID,0,VALID,73.7261,VALID,588.025,VALID,25.6089,VALID,139,VALID,0,
2016-05-16, 12:27:04,VALID,916.659,VALID,0,VALID,70.5776,VALID,565.57,VALID,25.7066,VALID,133,VALID,0.00429688,
2016-05-16, 12:28:04,VALID,916.612,VALID,0,VALID,71.0579,VALID,546.875,VALID,25.8218,VALID,143,VALID,0,
2016-05-16, 12:29:04,VALID,916.573,VALID,0,VALID,68.3287,VALID,513.354,VALID,25.9409,VALID,145,VALID,0,
2016-05-16, 12:30:04,VALID,916.567,VALID,0,VALID,72.918,VALID,499.494,VALID,25.9389,VALID,132,VALID,0.175781,
2016-05-16, 12:31:04,VALID,916.518,VALID,0,VALID,71.4695,VALID,487.353,VALID,25.9214,VALID,144,VALID,0,
2016-05-16, 12:32:04,VALID,916.505,VALID,0,VALID,68.7861,VALID,476.287,VALID,25.8999,INVALID,360,VALID,0,
2016-05-16, 12:33:04,VALID,916.466,VALID,0,VALID,72.148,VALID,468.658,VALID,26.019,VALID,153,VALID,1.1918,
2016-05-16, 12:34:04,VALID,916.45,VALID,0,VALID,69.1215,VALID,463.823,VALID,25.9585,VALID,157,VALID,0.549609,
2016-05-16, 12:35:04,VALID,916.4,VALID,0,VALID,71.1798,VALID,461.137,VALID,25.9975,VALID,135,VALID,0,
2016-05-16, 12:36:04,VALID,916.383,VALID,0,VALID,72.5139,VALID,465.65,VALID,26.0952,VALID,139,VALID,0.630859,
2016-05-16, 12:37:04,VALID,916.317,VALID,0,VALID,71.8354,VALID,445.021,VALID,26.0171,VALID,148,VALID,0,
2016-05-16, 12:38:04,VALID,916.272,VALID,0,VALID,73.0323,VALID,423.318,VALID,25.978,VALID,137,VALID,0,
2016-05-16, 12:39:04,VALID,916.222,VALID,0,VALID,76.3561,VALID,421.492,VALID,26.0757,VALID,147,VALID,0,